Ilona — VJN3432 — position and weather

sailwx.info

Track history (hours):
 
Tides and Currents Weather Stations Pressure Air Temp Water Temp Dewpoint Dewpoint Depression Visibility Wind Speed Wind Dir Waves Ship Positions

Ilona

Last reported at 2016-Jun-27 03:33 UTC. Time now 2016-Jul-25 06:13 UTC.
Position N 51°30' E 002°12'.
Warning: this ship's position is 28 days out of date.

Length 74 m; draft 3.8 m.

Type: Pleasure craft. MMSI: 503514000.

Date/timePositionNaut miles runAvg speedWind from/ knotsBaromVisibWave heightAir tempDewpointWater temp
2016-Jun-27 03:33N 51°30' E 002°12'1615.9
2016-Jun-27 02:33N 51°18' E 001°55'1515.4
2016-Jun-27 01:34N 51°06' E 001°39'1414.1
2016-Jun-27 00:34N 50°55' E 001°25'5313.2
2016-Jun-26 20:31N 50°24' E 000°17'1413.6
2016-Jun-26 19:31N 50°19' W 000°02'1413.4
2016-Jun-26 18:28N 50°14' W 000°23'1513.0
2016-Jun-26 17:18N 50°08' W 000°45'1413.4
2016-Jun-26 16:16N 50°02' W 001°05'1114.1
2016-Jun-26 15:30N 49°58' W 001°20'  
2016-Jun-23 16:32N 39°01' W 009°51'1915.0
2016-Jun-23 15:15N 38°41' W 009°51'1114.7
2016-Jun-23 14:31N 38°31' W 009°48'1514.6
2016-Jun-23 13:30N 38°16' W 009°43'1414.4
2016-Jun-23 12:33N 38°03' W 009°40'1615.2
2016-Jun-23 11:32N 37°48' W 009°35'2215.1
2016-Jun-23 10:05N 37°27' W 009°28'21113.2
2016-Jun-22 18:08N 35°60' W 005°29'712.4
2016-Jun-22 17:33N 36°05' W 005°23'3 0.4
2016-Jun-22 08:24N 36°09' W 005°22'1 0.7
2016-Jun-22 07:27N 36°09' W 005°23'0 0.1
2016-Jun-22 06:18N 36°09' W 005°23'0 0.1
2016-Jun-22 05:30N 36°09' W 005°23'0 0.1
2016-Jun-22 04:33N 36°09' W 005°23'4 4.1
2016-Jun-22 03:33N 36°05' W 005°21'22313.7
2016-Jun-21 11:15N 37°18' W 000°57'1115.0
2016-Jun-21 10:33N 37°25' W 000°47'1515.0
2016-Jun-21 09:33N 37°35' W 000°33'1514.8
2016-Jun-21 08:32N 37°47' W 000°22'6115.4
2016-Jun-21 04:33N 38°23' E 000°40'1615.1
2016-Jun-21 03:30N 38°33' E 000°57'1514.9
2016-Jun-21 02:29N 38°42' E 001°12'1314.4
2016-Jun-21 01:32N 38°50' E 001°26'3 0.2
2016-Jun-20 08:31N 38°53' E 001°25'2 0.1
2016-Jun-19 19:16N 38°54' E 001°27'  
2016-Jun-17 13:32N 38°54' E 001°26'11 1.2
2016-Jun-17 04:30N 38°43' E 001°29'  
Track history (hours):
 
Tides and Currents Weather Stations Pressure Air Temp Water Temp Dewpoint Dewpoint Depression Visibility Wind Speed Wind Dir Waves Ship Positions

Ilona

Last reported at 2016-Jun-27 03:33 UTC. Time now 2016-Jul-25 06:13 UTC.
Position N 51°30' E 002°12'.
Warning: this ship's position is 28 days out of date.

Length 74 m; draft 3.8 m.

Type: Pleasure craft. MMSI: 503514000.

Date/timePositionNaut miles runAvg speedWind from/ knotsBaromVisibWave heightAir tempDewpointWater temp
2016-Jun-27 03:33N 51°30' E 002°12'1615.9
2016-Jun-27 02:33N 51°18' E 001°55'1515.4
2016-Jun-27 01:34N 51°06' E 001°39'1414.1
2016-Jun-27 00:34N 50°55' E 001°25'5313.2
2016-Jun-26 20:31N 50°24' E 000°17'1413.6
2016-Jun-26 19:31N 50°19' W 000°02'1413.4
2016-Jun-26 18:28N 50°14' W 000°23'1513.0
2016-Jun-26 17:18N 50°08' W 000°45'1413.4
2016-Jun-26 16:16N 50°02' W 001°05'1114.1
2016-Jun-26 15:30N 49°58' W 001°20'  
2016-Jun-23 16:32N 39°01' W 009°51'1915.0
2016-Jun-23 15:15N 38°41' W 009°51'1114.7
2016-Jun-23 14:31N 38°31' W 009°48'1514.6
2016-Jun-23 13:30N 38°16' W 009°43'1414.4
2016-Jun-23 12:33N 38°03' W 009°40'1615.2
2016-Jun-23 11:32N 37°48' W 009°35'2215.1
2016-Jun-23 10:05N 37°27' W 009°28'21113.2
2016-Jun-22 18:08N 35°60' W 005°29'712.4
2016-Jun-22 17:33N 36°05' W 005°23'3 0.4
2016-Jun-22 08:24N 36°09' W 005°22'1 0.7
2016-Jun-22 07:27N 36°09' W 005°23'0 0.1
2016-Jun-22 06:18N 36°09' W 005°23'0 0.1
2016-Jun-22 05:30N 36°09' W 005°23'0 0.1
2016-Jun-22 04:33N 36°09' W 005°23'4 4.1
2016-Jun-22 03:33N 36°05' W 005°21'22313.7
2016-Jun-21 11:15N 37°18' W 000°57'1115.0
2016-Jun-21 10:33N 37°25' W 000°47'1515.0
2016-Jun-21 09:33N 37°35' W 000°33'1514.8
2016-Jun-21 08:32N 37°47' W 000°22'6115.4
2016-Jun-21 04:33N 38°23' E 000°40'1615.1
2016-Jun-21 03:30N 38°33' E 000°57'1514.9
2016-Jun-21 02:29N 38°42' E 001°12'1314.4
2016-Jun-21 01:32N 38°50' E 001°26'3 0.2
2016-Jun-20 08:31N 38°53' E 001°25'2 0.1
2016-Jun-19 19:16N 38°54' E 001°27'  
2016-Jun-17 13:32N 38°54' E 001°26'11 1.2
2016-Jun-17 04:30N 38°43' E 001°29'  

Dump ship's entire track history